Delaware County Regional (MIE)

 

Airport Diagram
Current Weather/Forecast (VFR Conditions)
METAR KMIE 182253Z 28003KT 10SM SCT100 17/M03 A2987 RMK AO2 SLP115 T01671033
TAF

Airport Information

All Charts
General
Chart Name View
AIRPORT DIAGRAM
AIRPORT DIAGRAM
TAKEOFF MINIMUMS
ALTERNATE MINIMUMS
TAKEOFF MINIMUMS
ALTERNATE MINIMUMS
LAHSO
LAHSO

Approaches
Chart Name Download
ILS OR LOC RWY 32
RNAV (GPS) RWY 03
RNAV (GPS) RWY 14
RNAV (GPS) RWY 21
RNAV (GPS) RWY 32
VOR RWY 14
VOR RWY 21
ILS OR LOC RWY 32
RNAV (GPS) RWY 03
RNAV (GPS) RWY 14
RNAV (GPS) RWY 21
RNAV (GPS) RWY 32
VOR RWY 14
VOR RWY 21


Airport Statistics
Departures Arrivals Local
All Collected Stats since June 2016: 38 25 2
2021 Stats: 7 3 0
April Stats: 1 0 0

Inbound Traffic (Arrivals) - 0

No inbound traffic.


Outbound Traffic (Departures) - 0

No outbound traffic.


Local Traffic (Pattern) - 0

No local traffic.